Weather History for MMUN - November, 2012

Change the Weather History Date:

Thursday, November 8, 2012

  Actual Average Record
Temperature  
Mean Temperature 70 °F -  
Max Temperature 80 °F 84 °F 89 °F (2000)
Min Temperature 59 °F 69 °F 59 °F (2010)
Cooling Degree Days 4    
Growing Degree Days 20 (Base 50)    
Moisture  
Dew Point 58 °F    
Average Humidity 73    
Maximum Humidity 94    
Minimum Humidity 42    
Precipitation  
Precipitation 0.00 in - - ()
Sea Level Pressure  
Sea Level Pressure 30.06 in    
Wind  
Wind Speed 4 mph ()    
Max Wind Speed 10 mph    
Max Gust Speed -    
Visibility 7.0 miles    
Events      
Averages and records for this station are not official NWS values.
T = Trace of Precipitation, MM = Missing Value Source: Averaged Metar Reports

Daily Weather History Graph

Daily Weather History Graph

Search for Another Location

Airport or City:

Trip Planner

Search our weather history database for the weather conditions in past years. The results will help you decide how hot, cold, wet, or windy it might be!

Date:

Astronomy

Nov. 08, 2012 Rise Set
Actual Time 5:54 AM CST 5:08 PM CST
Civil Twilight 5:30 AM CST 5:31 PM CST
Nautical Twilight 5:04 AM CST 5:57 PM CST
Astronomical Twilight 4:38 AM CST 6:24 PM CST
Moon 12:31 AM CST (11/8) 1:10 PM CST (11/8)
Length of Visible Light 12h 00m
Length of Day
11h 14m
Waning Crescent, 32% of the Moon is Illuminated
Nov 8
Waning Crescent
Nov 13
New
Nov 20
First Quarter
Nov 28
Full
Dec 6
Last Quarter

Hourly Weather History & Observations

Time (CST) Temp. Heat Index Dew Point Humidity Pressure Visibility Wind Dir Wind Speed Gust Speed Precip Events Conditions
12:42 AM 59.0 °F - 55.4 °F 88% 30.05 in 7.0 mi WNW 3.5 mph - N/A   Clear
1:42 AM 59.0 °F - 55.4 °F 88% 30.04 in 7.0 mi Calm Calm - N/A   Clear
2:45 AM 59.0 °F - 57.2 °F 94% 30.04 in 7.0 mi NW 5.8 mph - N/A   Clear
3:55 AM 59.0 °F - 57.2 °F 94% 30.05 in 7.0 mi NW 4.6 mph - N/A   Clear
4:44 AM 59.0 °F - 57.2 °F 94% 30.05 in 7.0 mi NW 5.8 mph - N/A   Clear
5:48 AM 59.0 °F - 55.4 °F 88% 30.05 in 7.0 mi WNW 4.6 mph - N/A   Partly Cloudy
6:43 AM 60.8 °F - 57.2 °F 88% 30.08 in 7.0 mi NW 4.6 mph - N/A   Partly Cloudy
7:54 AM 71.6 °F - 60.8 °F 69% 30.10 in 7.0 mi NNW 3.5 mph - N/A   Clear
8:48 AM 77.0 °F - 57.2 °F 50% 30.11 in 7.0 mi NNW 2.3 mph - N/A   Clear
9:48 AM 78.8 °F - 53.6 °F 42% 30.11 in 7.0 mi North 4.6 mph - N/A   Clear
10:47 AM 78.8 °F - 57.2 °F 47% 30.10 in 7.0 mi North 10.4 mph - N/A   Partly Cloudy
11:48 AM 80.6 °F 80.5 °F 55.4 °F 42% 30.09 in 7.0 mi NNE 10.4 mph - N/A   Scattered Clouds
12:42 PM 78.8 °F - 57.2 °F 47% 30.05 in 7.0 mi NNE 8.1 mph - N/A   Scattered Clouds
1:40 PM 62.6 °F - 55.4 °F 77% 30.04 in 7.0 mi NNE 5.8 mph - N/A   Scattered Clouds
2:51 PM 77.0 °F - 59.0 °F 54% 30.03 in 7.0 mi North 4.6 mph - N/A   Scattered Clouds
3:45 PM 77.0 °F - 60.8 °F 57% 30.03 in 7.0 mi North 6.9 mph - N/A   Scattered Clouds
4:42 PM 75.2 °F - 60.8 °F 61% 30.04 in 7.0 mi North 6.9 mph - N/A   Scattered Clouds
5:46 PM 71.6 °F - 59.0 °F 64% 30.05 in 7.0 mi NNW 4.6 mph - N/A   Partly Cloudy
6:45 PM 68.0 °F - 59.0 °F 73% 30.06 in 7.0 mi NW 4.6 mph - N/A   Clear
7:44 PM 66.2 °F - 59.0 °F 78% 30.08 in 7.0 mi NW 5.8 mph - N/A   Clear
8:45 PM 64.4 °F - 59.0 °F 83% 30.08 in 7.0 mi NW 4.6 mph - N/A   Clear
9:48 PM 62.6 °F - 59.0 °F 88% 30.09 in 7.0 mi NNW 5.8 mph - N/A   Clear
10:47 PM 62.6 °F - 59.0 °F 88% 30.08 in 7.0 mi NW 5.8 mph - N/A   Clear
11:46 PM 62.6 °F - 59.0 °F 88% 30.05 in 7.0 mi NNW 5.8 mph - N/A   Clear